Location: Владивосток
(43.1151°N, 131.8856°E)
Time: 21:57:33
(UTC+10:00)

DX 1 - Pass Details

Date: 09 July 2022
Orbit: 617 x 629 km, 98.4° (Epoch: 11 August)

Event Time Altitude Azimuth Distance (km) Brightness Sun altitude
Rises 22:07:35 0° 18° (NNE) 2,924 ? -11.3°
Reaches altitude 10° 22:09:51 10° 23° (NNE) 2,010 ? -11.6°
Maximum altitude 22:14:07 52° 100° (E) 779 ? -12.1°
Enters shadow 22:18:02 12° 177° (S) 1,867 ? -12.6°
